;���������� (mm);������� (m3/s)
;;
5/1/2012 17:00;0.00;0.34
5/1/2012 18:00;0.00;0.21
5/1/2012 19:00;0.00;0.28
5/1/2012 20:00;0.00;0.16
5/1/2012 21:00;0.00;0.23
5/1/2012 22:00;0.00;0.19
5/1/2012 23:00;1.61;0.19
6/1/2012 00:00;0.12;0.19
6/1/2012 01:00;1.98;0.29
6/1/2012 02:00;4.12;0.21
6/1/2012 03:00;3.35;0.27
6/1/2012 04:00;6.97;0.53
6/1/2012 05:00;0.75;0.37
6/1/2012 06:00;0.02;0.66
6/1/2012 07:00;4.32;1.13
6/1/2012 08:00;6.47;1.20
6/1/2012 09:00;5.54;1.72
6/1/2012 10:00;11.51;1.64
6/1/2012 11:00;13.11;3.06
6/1/2012 12:00;13.17;6.69
6/1/2012 13:00;9.93;14.12
6/1/2012 14:00;6.98;20.65
6/1/2012 15:00;6.10;25.37
6/1/2012 16:00;8.50;27.13
6/1/2012 17:00;6.51;30.20
6/1/2012 18:00;3.46;26.85
6/1/2012 19:00;2.00;30.85
6/1/2012 20:00;0.36;31.83
6/1/2012 21:00;1.27;28.35
6/1/2012 22:00;2.05;32.11
6/1/2012 23:00;2.92;33.15
7/1/2012 00:00;2.00;31.79
7/1/2012 01:00;3.07;29.63
7/1/2012 02:00;2.00;30.24
7/1/2012 03:00;2.07;24.49
7/1/2012 04:00;0.60;24.04
7/1/2012 05:00;0.94;19.83
7/1/2012 06:00;0.29;19.30
7/1/2012 07:00;0.19;19.06
7/1/2012 08:00;0.19;15.56
7/1/2012 09:00;0.19;15.80
7/1/2012 10:00;0.02;14.42
7/1/2012 11:00;0.00;15.59
7/1/2012 12:00;0.00;14.16
7/1/2012 13:00;0.05;13.94
7/1/2012 14:00;0.00;12.83
7/1/2012 15:00;0.00;13.06
7/1/2012 16:00;0.00;13.05
7/1/2012 17:00;0.00;11.99
7/1/2012 18:00;0.00;11.35
7/1/2012 19:00;0.00;12.42
7/1/2012 20:00;0.00;11.97
7/1/2012 21:00;0.00;11.76
7/1/2012 22:00;0.00;10.33
7/1/2012 23:00;0.00;11.97
8/1/2012 00:00;0.00;10.54
8/1/2012 01:00;0.00;10.56
8/1/2012 02:00;0.00;9.55
8/1/2012 03:00;0.00;7.18
8/1/2012 04:00;0.00;7.90
8/1/2012 05:00;0.00;7.52
8/1/2012 06:00;0.00;7.00
8/1/2012 07:00;0.00;6.88
8/1/2012 08:00;0.00;6.67
8/1/2012 09:00;0.00;6.85
8/1/2012 10:00;0.00;6.85
8/1/2012 11:00;0.00;7.18
8/1/2012 12:00;0.00;7.71
8/1/2012 13:00;0.00;7.00
8/1/2012 14:00;0.00;6.67
8/1/2012 15:00;0.00;7.00
8/1/2012 16:00;0.00;6.68
8/1/2012 17:00;0.00;7.02
8/1/2012 18:00;0.00;6.51
8/1/2012 19:00;0.00;6.35
8/1/2012 20:00;0.00;6.53
8/1/2012 21:00;0.00;5.88
8/1/2012 22:00;0.00;6.04
8/1/2012 23:00;0.00;6.67
9/1/2012 00:00;0.00;6.85
9/1/2012 01:00;1.56;6.04
9/1/2012 02:00;0.12;6.34
9/1/2012 03:00;0.00;5.89
9/1/2012 04:00;0.00;6.85
9/1/2012 05:00;0.00;6.20
9/1/2012 06:00;0.00;6.36
9/1/2012 07:00;0.00;6.34
9/1/2012 08:00;0.00;6.03
9/1/2012 09:00;0.00;5.41
9/1/2012 10:00;0.00;5.87
